sat.trackr.live / text

‹ back to catalog

ZHONGXING-6E

NORAD 58253 · 2023-172A

PAYLOAD ACTIVE UNKNOWN

§ Identity

Operator
Country
PRC
Launch date
2023-11-09
Launch site
XICLF
Launch vehicle
Mass (kg)
RCS (m²)

Purposes: comms

External: N2YO · Heavens-Above · Gunter

§ Orbital elements

Epoch: 2026-05-25T02:43:58.311840Z

Period
1,436.12 min
Inclination
0.0510°
Eccentricity
0.0002734
Mean motion
1.00270344 rev/d
Perigee alt
35,775.5 km
Apogee alt
35,798.5 km
Semi-major
42,165.1 km
B*
0.0000e+0
RAAN
101.0898°
Arg perigee
329.8242°
Mean anomaly
328.2907°
Rev number
942

§ Raw data

ZHONGXING-6E1 58253U 23172A   26145.11386935 -.00000364  00000+0  00000+0 0  99942 58253   0.0510 101.0898 0002734 329.8242 328.2907  1.00270344  9421

JSON: /api/v1/satellites/58253 · /tle

For live sub-satellite position, see the globe view (requires WebGL).

§ Visibility from observer

Set your observer location to see the next 7 days of passes ≥ 10°. The values pass through the URL so the page stays shareable.

No JS? Fill the form by hand. The geolocation button needs JavaScript.